GW5306 Weather Reports


time (UTC)temp
C
wind
direction
speed
KPH
gust
KPH
rain 1hr
cm
rain 24hr
cm
rain mn
cm
humidity
%
barometer
mb
20260505082446 36 56 3.2 4.8 0.00 0.00 0.00 45 1007.0
20260505081947 36 171 6.4 6.4 0.00 0.00 0.00 44 1007.0
20260505080946 36 23 4.8 4.8 0.00 0.00 0.00 46 1008.0
20260505080447 36 147 4.8 4.8 0.00 0.00 0.00 46 1007.0
20260505075947 35 160 8.0 11.3 0.00 0.00 0.00 49 1008.0
20260505075447 35 189 6.4 11.3 0.00 0.00 0.00 48 1008.0
20260505074946 35 36 1.6 3.2 0.00 0.00 0.00 48 1007.0
20260505074446 35 127 3.2 3.2 0.00 0.00 0.00 48 1008.0
20260505073946 35 101 3.2 3.2 0.00 0.00 0.00 49 1008.0
20260505073448 36 218 1.6 1.6 0.00 0.00 0.00 47 1008.0
20260505072946 35 153 0.0 0.0 0.00 0.00 0.00 49 1008.0
20260505072446 35 144 4.8 6.4 0.00 0.00 0.00 50 1008.0
20260505071947 36 140 3.2 4.8 0.00 0.00 0.00 47 1008.0
20260505071447 36 82 0.0 0.0 0.00 0.00 0.00 47 1008.0
20260505070947 35 357 1.6 3.2 0.00 0.00 0.00 48 1009.0
20260505070447 36 355 4.8 4.8 0.00 0.00 0.00 48 1009.0
20260505065947 36 271 1.6 1.6 0.00 0.00 0.00 47 1009.0
20260505065446 36 177 3.2 3.2 0.00 0.00 0.00 49 1009.0
20260505064947 35 282 1.6 1.6 0.00 0.00 0.00 49 1009.0
20260505064447 34 174 4.8 4.8 0.00 0.00 0.00 51 1009.0
20260505063948 33 158 4.8 4.8 0.00 0.00 0.00 52 1009.0
20260505063446 33 156 6.4 11.3 0.00 0.00 0.00 54 1009.0
20260505062946 34 183 3.2 4.8 0.00 0.00 0.00 52 1010.0
20260505062446 33 27 0.0 1.6 0.00 0.00 0.00 53 1009.0
20260505061946 33 31 1.6 3.2 0.00 0.00 0.00 53 1010.0
20260505061446 32 78 3.2 3.2 0.00 0.00 0.00 55 1010.0
20260505060946 32 167 4.8 4.8 0.00 0.00 0.00 56 1010.0
20260505060446 32 142 4.8 9.7 0.00 0.00 0.00 57 1010.0
20260505055946 34 153 3.2 4.8 0.00 0.00 0.00 54 1010.0
20260505055447 33 235 3.2 3.2 0.00 0.00 0.00 53 1010.0
20260505054947 33 319 1.6 1.6 0.00 0.00 0.00 56 1010.0
20260505054446 33 334 1.6 3.2 0.00 0.00 0.00 54 1010.0
20260505053948 32 170 6.4 9.7 0.00 0.00 0.00 57 1010.0
20260505053447 32 227 1.6 3.2 0.00 0.00 0.00 58 1010.0
20260505052946 33 95 1.6 1.6 0.00 0.00 0.00 57 1010.0
20260505052446 33 21 0.0 1.6 0.00 0.00 0.00 55 1010.0
20260505051946 32 313 0.0 0.0 0.00 0.00 0.00 56 1010.0
20260505051446 33 239 3.2 3.2 0.00 0.00 0.00 55 1010.0
20260505050947 32 219 0.0 0.0 0.00 0.00 0.00 56 1011.0
20260505050447 32 259 3.2 3.2 0.00 0.00 0.00 58 1011.0
20260505041447 31 146 3.2 3.2 0.00 0.00 0.00 61 1011.0
20260505040946 30 142 1.6 3.2 0.00 0.00 0.00 64 1011.0
20260505040446 30 86 1.6 1.6 0.00 0.00 0.00 64 1011.0
20260505035947 30 145 1.6 1.6 0.00 0.00 0.00 65 1011.0
20260505035447 30 120 3.2 3.2 0.00 0.00 0.00 66 1011.0
20260505034946 30 98 1.6 3.2 0.00 0.00 0.00 64 1011.0
20260505034447 30 113 1.6 1.6 0.00 0.00 0.00 64 1011.0
20260505033947 30 73 1.6 1.6 0.00 0.00 0.00 65 1011.0
20260505033446 29 138 0.0 0.0 0.00 0.00 0.00 65 1011.0
20260505032946 28 168 3.2 4.8 0.00 0.00 0.00 67 1011.0
20260505032447 29 222 1.6 3.2 0.00 0.00 0.00 67 1011.0
20260505031947 29 295 0.0 1.6 0.00 0.00 0.00 66 1011.0
20260505031446 29 294 1.6 3.2 0.00 0.00 0.00 67 1011.0
20260505030953 28 251 1.6 1.6 0.00 0.00 0.00 67 1011.0
20260505030446 29 239 1.6 1.6 0.00 0.00 0.00 67 1011.0
20260505025946 29 291 0.0 0.0 0.00 0.00 0.00 67 1011.0
20260505025446 28 284 1.6 1.6 0.00 0.00 0.00 69 1010.0
20260505024946 28 260 3.2 3.2 0.00 0.00 0.00 68 1011.0
20260505024446 28 265 1.6 1.6 0.00 0.00 0.00 70 1011.0
20260505023946 28 336 1.6 1.6 0.00 0.00 0.00 70 1010.0
20260505023446 28 355 0.0 0.0 0.00 0.00 0.00 70 1010.0
20260505022946 28 310 1.6 1.6 0.00 0.00 0.00 70 1011.0
20260505022446 28 282 3.2 3.2 0.00 0.00 0.00 71 1011.0
20260505021946 27 270 1.6 3.2 0.00 0.00 0.00 71 1011.0
20260505021446 27 264 4.8 4.8 0.00 0.00 0.00 71 1010.0
20260505020946 27 274 1.6 1.6 0.00 0.00 0.00 73 1010.0
20260505020446 27 340 0.0 0.0 0.00 0.00 0.00 74 1011.0
20260505015946 27 340 0.0 1.6 0.00 0.00 0.00 75 1011.0
20260505015446 27 340 0.0 0.0 0.00 0.00 0.00 76 1011.0
20260505014946 26 340 1.6 1.6 0.00 0.00 0.00 78 1011.0
20260505014446 26 340 1.6 3.2 0.00 0.00 0.00 78 1011.0
20260505013946 26 340 1.6 3.2 0.00 0.00 0.00 79 1011.0
20260505013447 26 340 1.6 1.6 0.00 0.00 0.00 79 1011.0
20260505012949 26 340 0.0 0.0 0.00 0.00 0.00 79 1011.0
20260505012448 26 340 0.0 1.6 0.00 0.00 0.00 80 1011.0
20260505011947 26 340 0.0 1.6 0.00 0.00 0.00 79 1010.0
20260505011449 26 340 1.6 1.6 0.00 0.00 0.00 80 1010.0
20260505010946 26 340 0.0 0.0 0.00 0.00 0.00 80 1010.0
20260505010446 26 340 0.0 0.0 0.00 0.00 0.00 80 1010.0
20260505005946 26 340 1.6 1.6 0.00 0.00 0.00 81 1010.0
20260505005446 26 340 0.0 0.0 0.00 0.00 0.00 80 1010.0
20260505004946 26 339 0.0 0.0 0.00 0.00 0.00 80 1010.0
20260505004447 26 339 0.0 0.0 0.00 0.00 0.00 80 1010.0
20260505003947 26 339 0.0 0.0 0.00 0.00 0.00 80 1010.0
20260505003446 26 339 0.0 0.0 0.00 0.00 0.00 80 1010.0
20260505002946 26 339 0.0 0.0 0.00 0.00 0.00 80 1010.0
20260505002447 26 339 0.0 0.0 0.00 0.00 0.00 81 1010.0
20260505001947 26 339 1.6 1.6 0.00 0.00 0.00 80 1010.0
20260505001447 26 339 0.0 1.6 0.00 0.00 0.00 80 1010.0
20260505000946 26 339 0.0 0.0 0.00 0.00 0.00 80 1010.0
20260505000446 26 340 1.6 1.6 0.00 0.00 0.00 79 1010.0
20260504235946 26 340 1.6 1.6 0.00 0.00 0.00 80 1010.0
20260504235447 26 343 3.2 4.8 0.00 0.00 0.00 80 1010.0
20260504234946 26 352 3.2 4.8 0.00 0.00 0.00 80 1010.0
20260504234447 26 10 4.8 4.8 0.00 0.00 0.00 80 1010.0
20260504233947 26 17 1.6 1.6 0.00 0.00 0.00 80 1010.0
20260504233447 26 136 3.2 3.2 0.00 0.00 0.00 79 1010.0
20260504232946 26 142 0.0 1.6 0.00 0.00 0.00 76 1010.0
20260504232446 26 142 0.0 0.0 0.00 0.00 0.00 77 1010.0
20260504231946 26 142 0.0 0.0 0.00 0.00 0.00 77 1010.0
20260504231447 26 142 0.0 0.0 0.00 0.00 0.00 77 1010.0
20260504230947 26 142 1.6 1.6 0.00 0.00 0.00 76 1010.0
20260504230446 27 142 0.0 0.0 0.00 0.00 0.00 74 1010.0
20260504225947 27 142 0.0 0.0 0.00 0.00 0.00 74 1010.0
20260504225446 27 142 0.0 0.0 0.00 0.00 0.00 73 1009.0
20260504224947 27 142 0.0 1.6 0.00 0.00 0.00 73 1009.0
20260504224451 26 142 0.0 0.0 0.00 0.00 0.00 74 1009.0
20260504223946 26 142 0.0 0.0 0.00 0.00 0.00 75 1009.0
20260504223447 26 142 0.0 1.6 0.00 0.00 0.00 76 1009.0
20260504222946 26 142 1.6 1.6 0.00 0.00 0.00 76 1009.0
20260504222446 26 142 0.0 0.0 0.00 0.00 0.00 76 1009.0
20260504221946 26 142 1.6 1.6 0.00 0.00 0.00 75 1009.0
20260504221446 27 142 1.6 1.6 0.00 0.00 0.00 73 1009.0
20260504220946 27 142 1.6 1.6 0.00 0.00 0.00 72 1009.0
20260504220447 27 142 0.0 0.0 0.00 0.00 0.00 72 1009.0
20260504215946 27 142 0.0 0.0 0.00 0.00 0.00 72 1009.0
20260504215446 27 142 0.0 0.0 0.00 0.00 0.00 72 1009.0
20260504214946 27 142 1.6 1.6 0.00 0.00 0.00 72 1009.0
20260504214447 27 142 0.0 0.0 0.00 0.00 0.00 72 1009.0
20260504213947 27 142 1.6 1.6 0.00 0.00 0.00 72 1009.0
20260504213447 27 142 1.6 1.6 0.00 0.00 0.00 72 1009.0
20260504212946 27 142 0.0 0.0 0.00 0.00 0.00 72 1009.0
20260504212446 27 142 0.0 1.6 0.00 0.00 0.00 72 1009.0
20260504211946 27 142 0.0 0.0 0.00 0.00 0.00 72 1009.0
20260504211446 27 142 0.0 0.0 0.00 0.00 0.00 71 1009.0
20260504210946 27 142 0.0 0.0 0.00 0.00 0.00 72 1009.0
20260504210446 26 142 0.0 0.0 0.00 0.00 0.00 73 1009.0
20260504205947 26 142 0.0 0.0 0.00 0.00 0.00 75 1009.0
20260504205447 26 142 0.0 0.0 0.00 0.00 0.00 74 1009.0
20260504204947 27 142 0.0 0.0 0.00 0.00 0.00 74 1009.0
20260504204447 27 142 0.0 0.0 0.00 0.00 0.00 72 1009.0
20260504203947 27 142 0.0 0.0 0.00 0.00 0.00 72 1009.0
20260504203446 27 142 0.0 0.0 0.00 0.00 0.00 72 1009.0
20260504202948 27 142 0.0 0.0 0.00 0.00 0.00 72 1009.0
20260504202446 27 142 0.0 0.0 0.00 0.00 0.00 72 1009.0
20260504201954 27 142 0.0 1.6 0.00 0.00 0.00 72 1009.0
20260504201446 27 142 0.0 0.0 0.00 0.00 0.00 72 1009.0
20260504200946 27 142 0.0 0.0 0.00 0.00 0.00 71 1009.0
20260504200446 27 142 0.0 0.0 0.00 0.00 0.00 71 1010.0
20260504195946 27 142 0.0 0.0 0.00 0.00 0.00 71 1010.0
20260504195449 27 142 1.6 1.6 0.00 0.00 0.00 69 1009.0
20260504194946 27 141 0.0 0.0 0.00 0.00 0.00 70 1009.0
20260504194447 27 141 0.0 0.0 0.00 0.00 0.00 70 1009.0
20260504193946 27 141 0.0 1.6 0.00 0.00 0.00 70 1009.0
20260504193447 27 141 0.0 0.0 0.00 0.00 0.00 70 1009.0
20260504192946 27 142 1.6 1.6 0.00 0.00 0.00 70 1009.0
20260504192447 27 142 0.0 0.0 0.00 0.00 0.00 70 1010.0
20260504191946 27 142 1.6 3.2 0.00 0.00 0.00 71 1010.0
20260504191446 27 141 1.6 3.2 0.00 0.00 0.00 70 1010.0
20260504190952 27 122 1.6 1.6 0.00 0.00 0.00 70 1010.0
20260504190447 27 62 1.6 3.2 0.00 0.00 0.00 69 1010.0
20260504185946 27 61 1.6 1.6 0.00 0.00 0.00 69 1010.0
20260504185446 27 57 1.6 1.6 0.00 0.00 0.00 69 1010.0
20260504184946 27 160 0.0 0.0 0.00 0.00 0.00 68 1010.0
20260504184448 27 160 0.0 0.0 0.00 0.00 0.00 68 1010.0
20260504183947 27 160 0.0 1.6 0.00 0.00 0.00 69 1010.0
20260504183446 27 160 0.0 1.6 0.00 0.00 0.00 69 1010.0
20260504182950 27 160 0.0 1.6 0.00 0.00 0.00 69 1010.0
20260504182446 27 168 1.6 1.6 0.00 0.00 0.00 69 1010.0
20260504181947 27 183 4.8 4.8 0.00 0.00 0.00 69 1010.0
20260504181446 27 186 4.8 4.8 0.00 0.00 0.00 69 1010.0
20260504180947 27 179 3.2 3.2 0.00 0.00 0.00 69 1010.0
20260504180446 27 181 3.2 4.8 0.00 0.00 0.00 69 1010.0
20260504175947 27 192 0.0 0.0 0.00 0.00 0.00 68 1010.0
20260504175446 27 167 1.6 1.6 0.00 0.00 0.00 69 1010.0
20260504174948 27 182 6.4 6.4 0.00 0.00 0.00 69 1010.0
20260504174446 28 221 1.6 3.2 0.00 0.00 0.00 68 1010.0
20260504173947 28 210 0.0 1.6 0.00 0.00 0.00 68 1010.0
20260504173446 27 203 1.6 1.6 0.00 0.00 0.00 68 1011.0
20260504172948 28 167 4.8 4.8 0.00 0.00 0.00 68 1011.0
20260504172446 28 167 4.8 4.8 0.00 0.00 0.00 68 1010.0
20260504171952 28 187 4.8 4.8 0.00 0.00 0.00 67 1010.0
20260504171447 28 179 3.2 4.8 0.00 0.00 0.00 67 1010.0
20260504170947 28 196 1.6 3.2 0.00 0.00 0.00 67 1010.0
20260504170447 28 202 3.2 4.8 0.00 0.00 0.00 67 1010.0
20260504160447 28 183 1.6 3.2 0.00 0.00 0.00 67 1010.0
20260504150949 28 32 3.2 3.2 0.00 0.00 0.00 69 1010.0
20260504150446 28 139 0.0 1.6 0.00 0.00 0.00 70 1010.0
20260504140946 29 124 4.8 4.8 0.00 0.00 0.00 62 1008.0
20260504140447 30 118 6.4 6.4 0.00 0.00 0.00 60 1008.0
20260504130446 29 282 3.2 3.2 0.00 0.00 0.00 60 1007.0